GW0293 Weather Reports


time (UTC)temp
F
wind
direction
speed
knots
gust
knots
rain 1hr
in
rain 24hr
in
rain mn
in
humidity
%
barometer
mb
20260505041534 47 0 0.0 0.0 0.00 0.05 0.00 78 1009.9
20260505040057 47 0 0.0 0.0 0.00 0.05 0.00 79 1009.8
20260505034541 48 0 0.0 0.0 0.00 0.07 0.00 78 1009.6
20260505033036 48 0 0.0 0.0 0.00 0.07 0.00 78 1009.5
20260505031546 48 0 0.0 0.0 0.00 0.07 0.00 77 1009.3
20260505030035 49 0 0.0 0.0 0.00 0.07 0.00 75 1009.1
20260505024537 50 0 0.0 0.0 0.00 0.08 0.07 75 1008.9
20260505023035 50 0 0.0 0.0 0.00 0.08 0.07 74 1008.8
20260505021537 50 0 0.0 0.0 0.00 0.08 0.07 73 1008.3
20260505020040 51 0 0.0 0.0 0.00 0.08 0.07 72 1008.1
20260505014544 51 0 0.0 0.0 0.00 0.15 0.07 71 1008.0
20260505013040 51 0 0.0 0.0 0.00 0.15 0.07 70 1007.7
20260505011538 51 0 0.0 0.0 0.00 0.15 0.07 70 1007.6
20260505010041 52 0 0.0 0.0 0.00 0.15 0.07 69 1007.3
20260505004535 52 0 0.0 0.0 0.00 0.24 0.07 68 1007.1
20260505003042 53 0 0.0 0.0 0.00 0.24 0.07 67 1006.8
20260505001539 53 0 0.0 0.0 0.00 0.24 0.07 66 1006.5
20260505000047 53 0 0.0 0.0 0.00 0.24 0.07 65 1006.3
20260504234536 53 0 0.0 0.0 0.00 0.28 0.07 64 1006.1
20260504233035 54 0 0.0 0.0 0.00 0.28 0.07 62 1006.0
20260504231541 55 0 0.0 0.0 0.00 0.28 0.07 59 1005.9
20260504230041 56 0 0.0 0.0 0.00 0.28 0.07 58 1005.7
20260504224537 56 0 0.0 0.0 0.00 0.35 0.07 56 1005.6
20260504223036 57 0 0.0 0.0 0.00 0.35 0.07 56 1005.5
20260504221546 58 0 0.0 0.0 0.00 0.35 0.07 53 1005.3
20260504220049 58 0 0.0 0.0 0.00 0.35 0.07 55 1005.2
20260504214537 58 0 0.0 0.0 0.00 0.39 0.07 53 1005.2
20260504213051 58 0 0.0 0.0 0.00 0.39 0.07 54 1005.4
20260504211540 59 0 0.0 0.0 0.00 0.39 0.07 54 1005.4
20260504210047 60 0 0.0 0.0 0.00 0.39 0.07 54 1005.0
20260504204544 60 0 0.0 0.0 0.00 0.55 0.07 57 1004.8
20260504203041 60 0 0.0 0.0 0.00 0.55 0.07 55 1004.7
20260504201535 62 0 0.0 0.0 0.00 0.55 0.07 51 1004.2
20260504200036 62 0 0.0 0.0 0.00 0.55 0.07 48 1003.9
20260504194542 63 0 0.0 0.0 0.00 0.93 0.07 45 1003.9
20260504193055 63 0 0.0 0.0 0.00 0.93 0.07 43 1003.9
20260504191542 63 0 0.0 0.0 0.00 0.93 0.07 44 1003.9
20260504190042 62 0 0.0 0.0 0.00 0.93 0.07 42 1003.9
20260504184535 62 0 0.0 0.0 0.00 1.10 0.07 40 1003.8
20260504183056 61 0 0.0 0.0 0.00 1.10 0.07 38 1003.8
20260504181544 61 0 0.0 0.0 0.00 1.10 0.07 38 1004.1
20260504180112 61 0 0.0 0.0 0.00 1.10 0.07 41 1004.1
20260504174537 61 0 0.0 0.0 0.00 1.25 0.07 42 1004.0
20260504173035 61 0 0.0 0.0 0.00 1.25 0.07 43 1003.9
20260504171548 60 0 0.0 0.0 0.00 1.25 0.07 39 1004.0
20260504081535 41 0 0.0 0.0 0.00 1.45 0.07 93 997.9
20260504044538 37 0 0.0 0.0 0.01 1.41 0.03 94 994.2
20260504043043 37 0 0.0 0.0 0.02 1.41 0.03 94 994.1